Regional Weather Roundup
Issued by NWS Albany, NY

Home | Current Version | Previous Version | Text Only | Print | Product List | Glossary On
Versions: 1 2 3 4 5 6 7 8 9 10 11 12 13 14 15 16 17 18 19 20 21 22 23 24 25 26 27
000
ASUS41 KALY 221810
RWRALY

NEW YORK STATE HOURLY WEATHER ROUNDUP
NATIONAL WEATHER SERVICE ALBANY NY
200 PM EDT FRI SEP 22 2017

NOTE: "FAIR" INDICATES FEW OR NO CLOUDS BELOW 12,000 FEET WITH NO
SIGNIFICANT WEATHER AND/OR NO OBSTRUCTIONS TO VISIBILITY.

NYZ032-033-038>043-046>054-057>066-NYZ062>081-082-084-221900-
EAST


CITY           SKY/WX    TMP DP  RH WIND       PRES   REMARKS
ALBANY         MOSUNNY   77  49  37 N12       30.07F
GLENS FALLS    CLOUDY    75  53  46 N7        30.08F
POUGHKEEPSIE   SUNNY     77  48  35 N14G22    30.01F
NEWBURGH       MOSUNNY   75  54  46 NE12      30.04F
MONTGOMERY     MOSUNNY   80  51  36 N10G18    30.02F
WHITE PLAINS   MOSUNNY   79  55  43 NW15      29.97F
ISLIP          PTSUNNY   80  59  48 N21G28    29.92F
NEW YORK CITY  MOSUNNY   79  56  45 N16       29.95F
CENTRAL PARK   MOSUNNY   82  56  40 N10       29.99F
$$

NYZ005>009-017-018-044>046-055-056-221900-
CENTRAL


CITY           SKY/WX    TMP DP  RH WIND       PRES   REMARKS
FULTON         SUNNY     80  59  48 W7        30.11F
SYRACUSE       MOSUNNY   77  60  55 NW5       30.10F
ROME           SUNNY     77  57  50 VRB6      30.10F
ELMIRA         MOSUNNY   80  53  39 N7        30.10F
BINGHAMTON     SUNNY     78  51  38 N8        30.11F
MONTICELLO     SUNNY     79  47  32 N8        30.08F
$$

NYZ026>034-041>043-087-221900-
NORTH


CITY           SKY/WX    TMP DP  RH WIND       PRES   REMARKS
WATERTOWN      SUNNY     80  56  43 NE13      30.11F
FORT DRUM      NOT AVBL
OGDENSBURG     FAIR      79  56  44 NE5       30.12F
MASSENA        SUNNY     77  55  46 NE13      30.14F
SARANAC LAKE   SUNNY     76  37  24 VRB5      30.14F
PLATTSBURGH    SUNNY     75  52  44 NE10      30.11F
$$

NYZ001>004-010>016-019>021-085-221900-
WEST


CITY           SKY/WX    TMP DP  RH WIND       PRES   REMARKS
NIAGARA FALLS  SUNNY     83  56  39 VRB6      30.13F
BUFFALO        PTSUNNY   79  58  48 NE6       30.14F
DUNKIRK        MOSUNNY   76  63  64 N9        30.14F
JAMESTOWN      CLOUDY    76  54  46 NE3       30.17F
WELLSVILLE     CLOUDY    76  59  55 NE6       30.18F
ROCHESTER      MOSUNNY   77  53  43 VRB6      30.14F
PENN YAN       CLOUDY    76  58  53 VRB3      30.14F
$$

             KEY
       WCI = WIND CHILL INDEX
       VSB = VISIBILITY
       HX  = HEAT INDEX
$$




USA.gov is the U.S. government's official web portal to all federal, state and local government web resources and services.